Wind_Speed
25 25 23 21 20 21 22 22 22 21 21 21 21 21 22 24 26 24 24 25 26 26 26 25 25 24 23 23 21 20 18 18 18 17 18 19 22 24 25 23 24 23 23 22 20 23 21 21 18
24 23 22 22 20 23 24 22 21 22 21 19 19 21 21 22 22 22 23 25 25 25 23 19 21 22 23 22 20 18 20 20 20 19 20 22 24 25 25 24 23 22 22 21 19 19 22 21 20
23 23 22 22 20 22 23 21 21 19 18 19 20 20 20 20 21 21 21 21 21 19 18 19 19 19 17 16 18 19 18 17 15 15 15 16 16 16 16 17 15 15 16 18 21 21 19 20 22
23 21 22 20 19 19 17 16 16 17 17 18 18 18 18 18 15 9 8 9 12 13 14 13 14 13 14 15 15 14 14 15 15 15 15 13 11 11 12 14 15 14 14 15 15 15 16 17 19
16 18 16 16 16 13 11 12 11 12 12 11 12 11 8 7 8 9 9 9 9 9 13 12 11 12 13 13 12 11 11 11 11 12 13 11 10 10 11 12 13 13 14 15 16 15 15 17 17
11 12 10 10 8 9 8 6 6 6 8 7 7 7 7 7 9 10 9 8 6 7 9 10 12 12 10 7 7 8 9 9 11 12 12 12 11 10 10 11 12 12 12 12 12 11 11 11 12
9 9 8 6 5 3 3 3 5 5 6 6 3 1 1 2 5 3 1 1 2 3 5 8 7 6 8 8 9 9 11 11 12 12 12 11 12 12 13 14 15 15 15 15 16 16 16 15 15
10 9 5 4 6 5 3 4 9 11 10 9 10 10 10 10 9 13 13 12 10 8 4 2 3 4 4 5 6 7 8 9 10 11 11 11 11 13 13 14 15 16 17 17 18 19 20 21 20
11 7 6 9 10 9 17 16 12 11 12 12 10 10 9 8 8 9 9 7 5 3 1 2 3 4 4 4 6 8 10 11 12 13 13 13 14 14 15 16 17 18 19 20 20 21 22 23 24
10 8 10 14 18 17 13 13 13 12 11 10 9 10 8 6 6 5 3 2 1 1 3 4 6 7 10 12 14 15 16 17 17 18 18 18 18 19 20 21 22 22 23 25 26 26 25 26 27
13 13 17 17 17 14 14 13 11 10 9 8 6 5 5 5 2 1 2 4 4 5 7 9 11 14 15 16 18 18 18 20 21 22 23 24 26 28 30 32 32 30 30 31 31 31 32 32 31
15 19 17 15 13 10 11 10 9 7 6 5 2 1 1 2 3 5 7 9 10 12 14 15 16 17 16 18 20 22 23 25 26 28 30 31 32 33 34 34 34 34 34 35 36 37 37 37 37
15 13 14 13 12 10 8 7 5 4 5 4 4 5 6 6 6 8 9 11 14 15 16 17 17 17 19 21 24 27 29 31 32 33 33 33 34 33 33 34 35 37 37 37 37 37 37 38 39
13 14 12 11 12 10 8 6 5 3 4 4 5 7 9 9 9 10 10 12 15 18 19 20 20 21 23 25 28 32 33 33 34 35 36 36 35 37 39 40 40 40 41 41 41 40 40 40 40
10 9 8 9 10 10 7 5 5 8 9 7 6 8 10 12 13 13 13 15 18 20 23 24 25 26 28 31 33 34 34 35 36 37 38 39 40 42 44 43 43 43 41 40 41 41 42 42 43
5 4 7 10 10 8 6 5 6 9 9 10 12 12 13 14 15 16 18 19 21 23 25 26 27 28 30 33 34 36 38 39 39 39 42 44 46 49 47 45 45 44 42 41 42 42 42 43 44
4 3 2 3 4 5 5 5 7 11 12 11 12 14 14 15 16 18 20 22 24 27 29 31 33 35 35 37 39 42 42 41 42 45 46 47 49 49 48 47 47 47 47 47 49 49 48 48 47
3 2 3 5 7 8 10 7 9 10 11 14 15 15 14 15 17 20 22 23 27 31 35 36 38 35 37 40 41 42 42 45 47 49 50 51 52 51 51 51 53 55 56 57 58 56 55 53 53
2 3 4 6 9 12 12 13 13 16 16 15 15 14 15 16 20 23 24 28 32 34 36 38 40 39 40 41 43 45 47 49 51 52 52 53 54 56 56 57 57 59 61 62 62 62 62 62 61
3 5 7 7 8 11 11 14 15 16 16 17 18 17 18 20 24 27 30 33 34 36 37 39 40 41 43 45 46 48 50 51 52 51 53 55 57 58 59 61 62 63 63 64 64 64 66 67 65
7 9 10 11 12 14 16 18 18 17 18 19 19 18 19 22 26 30 33 35 36 37 38 40 41 44 46 48 49 49 50 50 51 54 58 60 61 62 64 65 68 69 67 67 67 68 69 69 70
12 12 13 13 15 16 16 21 18 18 19 20 18 20 23 27 30 31 32 34 36 38 40 41 43 45 45 46 48 50 51 53 54 57 61 64 63 65 67 68 69 71 72 73 74 73 73 73 73
16 16 16 17 17 18 17 18 18 20 21 22 23 26 30 33 33 32 35 37 40 42 43 44 43 44 46 49 50 51 55 60 63 65 65 68 71 73 75 75 77 77 77 77 77 76 76 79 79
18 19 20 22 22 20 18 20 22 22 24 26 28 32 34 35 35 35 38 41 41 41 41 42 45 48 51 53 54 56 59 62 67 70 72 74 76 78 80 81 80 79 78 78 79 81 81 80 81
21 20 21 21 22 22 20 22 24 23 27 30 33 35 36 35 38 40 41 42 43 43 44 48 51 54 56 58 61 64 68 69 71 74 76 77 78 79 80 81 82 83 84 84 82 81 83 83 85
17 17 18 19 20 22 22 25 24 27 29 32 34 36 37 38 39 40 42 41 43 45 49 52 54 55 59 62 65 68 69 71 73 74 76 77 78 79 81 83 84 84 85 87 86 86 87 88 87
14 15 17 18 19 21 23 25 27 28 31 31 33 36 38 39 39 38 40 43 45 50 53 53 55 58 60 63 66 67 69 70 73 76 79 80 81 82 82 84 87 88 90 91 92 91 87 86 84
17 18 20 20 23 23 24 26 28 29 32 34 35 36 39 37 38 42 45 47 50 51 53 55 58 59 61 63 66 70 73 75 77 78 79 80 80 82 86 88 90 91 91 88 83 77 72 68 68
20 22 23 25 26 28 28 25 28 33 36 37 38 34 36 38 42 44 46 48 52 54 57 59 61 64 67 69 69 73 76 77 78 78 79 81 85 86 89 87 88 81 74 69 64 59 55 53 52
25 26 28 29 32 33 33 28 30 37 40 38 35 34 38 41 45 47 50 54 55 57 60 64 66 69 72 72 73 77 77 79 78 79 82 86 88 91 90 82 72 67 60 54 49 47 45 46 48
Wind_Direction
258 259 266 270 272 273 274 274 279 277 279 271 267 265 264 266 264 267 266 272 277 281 295 305 309 312 305 305 323 326 326 328 325 320 316 310 312 306 301 299 295 294 296 301 301 303 289 273 272
256 259 265 268 270 270 270 273 273 277 276 276 273 271 270 271 274 280 284 287 294 302 309 313 307 306 308 323 333 333 330 331 325 320 314 310 305 299 297 294 298 303 300 292 288 294 295 284 282
251 255 260 262 262 262 269 271 274 277 278 276 277 278 281 289 294 295 298 297 298 298 304 313 332 336 328 336 328 325 327 325 324 323 320 314 314 316 315 308 315 316 308 296 293 290 292 288 283
255 258 261 260 260 263 268 276 277 279 279 279 283 291 295 294 298 305 302 290 290 312 315 343 349 333 323 315 317 326 319 316 320 322 318 310 303 310 317 317 313 310 306 304 301 296 290 283 282
262 263 260 258 258 262 267 265 270 280 282 289 292 291 294 286 283 290 301 313 312 315 329 330 323 315 320 323 323 326 332 342 356 358 352 336 326 328 322 318 322 325 318 312 308 304 298 292 292
243 243 246 242 238 245 246 260 261 267 267 260 263 277 289 293 297 290 290 294 312 318 315 320 328 336 335 346 3 7 5 0 350 348 356 1 4 3 354 348 338 335 335 333 328 326 322 316 310
209 197 203 212 211 194 196 211 239 247 244 235 198 168 7 23 53 40 328 306 339 351 3 21 39 38 47 31 14 355 345 337 338 334 335 337 338 335 330 327 324 320 316 314 312 310 307 304 301
187 186 168 162 153 154 198 185 127 111 103 119 122 111 99 84 64 72 81 83 79 76 76 87 61 34 13 352 330 323 314 317 323 323 326 330 330 325 324 325 321 317 314 311 308 305 303 299 295
159 143 166 150 141 135 123 118 115 112 102 102 103 99 93 93 84 80 80 81 88 104 96 360 350 331 317 309 306 307 316 319 317 312 313 316 317 315 316 313 310 308 306 303 298 292 289 288 286
150 155 135 125 132 130 126 123 121 113 111 102 100 103 108 103 98 95 100 122 196 272 300 298 296 307 319 326 325 321 316 312 308 309 310 311 311 310 308 305 300 295 294 296 296 295 292 287 282
124 126 123 131 137 138 134 135 133 129 121 112 116 106 98 102 100 157 240 242 255 273 289 310 321 322 327 326 319 312 309 308 308 307 306 305 304 305 305 305 302 297 293 292 292 291 291 288 285
135 130 135 142 142 144 140 137 141 137 128 129 148 197 233 251 276 305 314 321 323 321 319 317 315 318 319 315 310 307 305 304 304 305 306 305 306 306 305 303 301 298 295 292 291 290 290 290 288
126 141 150 158 157 163 159 150 154 158 165 172 211 249 274 290 305 315 329 324 317 312 311 310 312 311 307 304 303 303 304 305 304 304 304 305 304 303 303 302 301 299 297 295 291 288 287 287 288
150 158 164 170 166 166 164 176 177 198 216 229 256 270 289 309 310 316 319 318 314 311 310 310 307 304 302 302 302 301 299 299 299 301 303 303 301 301 300 298 298 300 299 295 292 289 287 285 285
155 162 176 183 182 176 192 215 226 227 227 231 285 307 316 321 324 323 322 315 311 310 308 306 302 299 296 296 297 295 293 296 298 299 301 301 299 300 301 299 299 298 297 296 293 291 289 287 285
140 167 193 196 201 201 206 237 254 270 286 316 314 317 323 321 317 315 309 305 304 302 304 301 298 292 290 293 295 295 296 297 299 300 299 297 296 298 302 301 299 298 296 294 291 289 287 286 284
165 187 254 271 264 289 269 233 225 245 269 292 298 304 306 303 304 304 301 297 298 304 303 301 299 300 301 302 301 301 301 301 302 303 301 300 299 302 303 303 302 299 298 296 294 294 292 290 288
184 227 271 274 283 281 288 276 259 258 280 287 287 293 299 300 297 288 287 293 299 302 302 301 304 302 300 302 303 303 301 301 303 302 301 302 305 305 304 303 303 302 302 300 298 296 294 292 291
225 257 257 249 258 263 263 266 263 271 278 280 288 293 293 289 284 287 297 301 301 298 298 297 299 301 299 300 303 303 301 301 303 303 303 304 303 302 301 298 298 297 296 295 294 293 292 292 291
261 276 282 282 267 276 278 271 269 270 273 282 289 292 290 292 297 300 298 297 295 293 294 294 296 297 297 297 299 299 299 299 297 299 299 298 296 295 294 293 291 292 291 290 289 288 289 289 288
269 275 276 280 273 267 267 270 270 274 278 283 288 290 291 295 292 290 288 288 290 292 292 294 294 294 296 297 297 297 295 294 296 297 295 293 294 295 294 292 291 292 292 292 292 291 289 289 288
268 270 274 280 284 284 276 275 274 277 281 284 283 288 293 294 292 290 288 289 290 291 291 290 289 291 295 296 296 294 294 293 294 295 294 294 294 293 293 292 292 291 290 289 290 289 288 288 286
273 277 279 280 282 286 284 273 282 279 280 279 281 288 296 297 295 291 290 290 291 292 292 294 298 299 296 293 292 295 297 300 303 303 302 300 299 298 298 296 294 294 294 294 293 292 291 291 290
277 277 277 277 278 279 279 272 278 276 276 280 287 292 293 294 293 292 293 292 291 293 296 296 297 297 299 302 302 299 301 300 300 301 300 299 298 296 296 295 295 294 293 292 291 290 290 290 290
274 276 277 278 279 279 275 270 279 276 278 284 287 290 292 293 293 295 298 299 299 300 301 303 305 306 306 304 303 302 302 302 301 299 298 297 297 297 297 296 294 292 291 291 291 290 290 289 288
287 286 282 280 282 283 282 285 289 286 286 287 290 291 294 297 299 297 298 298 300 303 305 305 305 303 302 302 302 303 302 299 298 298 298 298 298 296 295 294 294 293 293 293 293 292 291 289 287
307 302 295 292 288 286 284 286 285 285 286 288 290 293 296 297 296 298 299 300 302 305 305 303 301 301 302 300 298 298 301 302 303 302 301 301 300 299 299 298 297 297 296 296 294 292 287 284 281
299 296 294 291 288 285 286 291 292 290 289 291 292 293 296 298 301 302 302 302 303 304 303 301 301 300 299 300 303 306 307 307 306 304 303 302 301 300 301 302 301 299 296 294 291 288 284 280 278
304 299 295 291 290 288 286 284 291 292 292 294 297 301 301 301 302 301 302 303 305 305 304 305 304 304 304 305 307 309 310 309 309 307 305 304 307 307 307 303 302 300 298 294 291 289 286 283 282
308 302 297 296 295 292 292 294 292 291 292 297 298 298 300 302 303 306 307 307 306 305 306 308 307 306 305 304 306 309 313 314 312 311 310 309 310 311 311 308 304 301 300 296 289 282 279 278 277
Height
5851 5852 5853 5854 5857 5854 5853 5852 5850 5850 5851 5851 5850 5850 5850 5850 5849 5851 5848 5846 5846 5845 5845 5845 5844 5842 5840 5838 5838 5839 5836 5835 5833 5831 5829 5829 5829 5827 5827 5826 5826 5824 5823 5823 5821 5821 5818 5819 5819
5847 5848 5849 5850 5851 5848 5848 5847 5846 5846 5847 5847 5847 5847 5847 5847 5845 5845 5845 5844 5843 5842 5841 5840 5839 5837 5836 5837 5836 5834 5832 5831 5829 5828 5826 5825 5824 5824 5822 5822 5821 5820 5820 5819 5817 5816 5815 5814 5814
5843 5844 5846 5847 5846 5843 5843 5843 5843 5842 5842 5842 5843 5843 5843 5843 5843 5842 5841 5839 5838 5837 5836 5836 5835 5835 5835 5833 5833 5831 5830 5828 5826 5825 5822 5822 5821 5820 5819 5818 5817 5817 5816 5815 5814 5814 5812 5811 5810
5838 5840 5841 5841 5841 5840 5840 5840 5839 5838 5839 5839 5839 5840 5840 5839 5839 5838 5836 5836 5835 5836 5835 5833 5833 5833 5831 5831 5831 5830 5828 5826 5823 5821 5820 5818 5817 5816 5815 5814 5814 5813 5811 5809 5809 5809 5808 5807 5806
5834 5835 5836 5835 5835 5836 5836 5836 5836 5837 5837 5837 5838 5837 5837 5836 5836 5835 5835 5835 5834 5835 5834 5832 5831 5830 5829 5830 5829 5827 5826 5824 5822 5821 5818 5817 5815 5815 5814 5813 5812 5810 5808 5807 5806 5805 5804 5803 5802
5831 5831 5832 5832 5833 5834 5834 5835 5835 5836 5836 5835 5835 5835 5835 5835 5833 5833 5831 5832 5831 5832 5832 5829 5829 5829 5829 5828 5826 5826 5824 5823 5822 5821 5818 5816 5815 5814 5813 5812 5810 5808 5807 5805 5803 5802 5801 5800 5799
5826 5828 5831 5830 5831 5832 5833 5833 5834 5833 5833 5832 5833 5834 5834 5834 5832 5830 5831 5830 5831 5831 5831 5831 5832 5831 5828 5828 5826 5825 5824 5823 5821 5820 5818 5816 5814 5813 5811 5810 5808 5806 5805 5803 5801 5800 5798 5797 5796
5824 5826 5830 5829 5831 5831 5831 5832 5833 5832 5832 5831 5832 5834 5833 5833 5833 5833 5831 5830 5831 5832 5832 5832 5830 5829 5827 5826 5825 5824 5824 5822 5820 5818 5816 5813 5812 5810 5808 5806 5805 5803 5801 5799 5798 5796 5794 5793 5792
5824 5828 5830 5828 5830 5830 5831 5832 5833 5833 5833 5833 5834 5833 5833 5833 5833 5832 5831 5831 5833 5832 5832 5830 5828 5827 5826 5825 5823 5822 5820 5819 5817 5815 5812 5810 5808 5806 5804 5803 5801 5799 5797 5795 5793 5792 5791 5789 5787
5825 5827 5827 5828 5828 5831 5831 5832 5835 5835 5835 5834 5834 5833 5834 5833 5833 5833 5833 5832 5832 5831 5829 5828 5826 5825 5823 5821 5820 5819 5817 5816 5814 5812 5810 5807 5805 5803 5801 5799 5797 5794 5792 5790 5788 5786 5784 5784 5782
5824 5826 5827 5829 5830 5832 5832 5833 5835 5835 5834 5834 5834 5834 5832 5832 5832 5833 5833 5833 5831 5830 5828 5826 5825 5823 5821 5819 5818 5817 5815 5812 5810 5808 5806 5804 5801 5799 5796 5794 5791 5789 5786 5784 5782 5780 5778 5776 5774
5825 5827 5828 5831 5832 5833 5832 5834 5835 5836 5835 5834 5835 5833 5831 5832 5832 5831 5832 5831 5829 5828 5826 5824 5822 5819 5817 5816 5814 5811 5809 5807 5805 5803 5801 5799 5796 5792 5789 5786 5784 5781 5780 5777 5774 5771 5769 5767 5766
5827 5830 5831 5832 5832 5833 5833 5833 5834 5835 5834 5833 5834 5833 5832 5832 5830 5830 5830 5829 5828 5827 5824 5821 5819 5817 5815 5813 5811 5809 5806 5803 5800 5798 5795 5792 5789 5786 5783 5780 5777 5773 5771 5768 5765 5763 5761 5759 5757
5830 5829 5833 5832 5833 5832 5832 5834 5833 5834 5834 5834 5834 5834 5832 5831 5831 5830 5829 5828 5826 5823 5820 5818 5816 5814 5811 5809 5807 5804 5801 5798 5795 5792 5789 5786 5782 5779 5776 5772 5768 5765 5762 5759 5756 5753 5751 5749 5747
5831 5833 5835 5834 5834 5833 5832 5834 5834 5834 5834 5834 5833 5832 5831 5831 5831 5829 5828 5824 5821 5818 5817 5814 5812 5810 5808 5805 5802 5799 5795 5792 5788 5785 5781 5778 5774 5771 5767 5763 5759 5755 5752 5748 5745 5743 5740 5738 5736
5832 5833 5834 5834 5835 5833 5834 5834 5833 5831 5830 5831 5831 5830 5830 5829 5827 5824 5822 5819 5817 5815 5813 5811 5808 5805 5802 5799 5795 5792 5788 5784 5780 5776 5773 5769 5765 5761 5756 5753 5748 5744 5741 5737 5734 5731 5728 5726 5724
5832 5833 5834 5833 5832 5831 5832 5832 5831 5830 5829 5829 5828 5827 5826 5825 5822 5820 5817 5815 5813 5810 5808 5805 5801 5798 5794 5791 5788 5784 5779 5775 5771 5767 5762 5759 5754 5749 5745 5741 5737 5733 5729 5726 5722 5718 5715 5712 5710
5832 5832 5831 5831 5830 5830 5829 5829 5829 5828 5827 5826 5825 5824 5824 5822 5819 5815 5813 5811 5809 5805 5802 5798 5795 5791 5787 5783 5779 5775 5770 5765 5761 5756 5752 5746 5741 5736 5732 5728 5723 5719 5714 5710 5707 5704 5701 5699 5696
5831 5830 5829 5829 5828 5829 5828 5827 5827 5825 5824 5823 5822 5821 5819 5816 5814 5812 5810 5808 5805 5800 5796 5791 5787 5784 5780 5775 5770 5765 5760 5756 5751 5746 5740 5736 5731 5726 5722 5717 5713 5708 5703 5699 5694 5690 5687 5683 5680
5828 5827 5827 5827 5827 5826 5825 5824 5823 5822 5821 5820 5818 5816 5815 5812 5810 5807 5804 5801 5798 5793 5790 5786 5781 5776 5771 5766 5761 5756 5751 5746 5741 5735 5730 5725 5720 5715 5710 5705 5699 5694 5689 5685 5681 5676 5672 5669 5665
5825 5825 5824 5824 5824 5823 5823 5821 5820 5819 5817 5815 5814 5812 5810 5808 5805 5802 5799 5795 5792 5787 5783 5778 5772 5767 5762 5757 5752 5747 5741 5736 5730 5725 5719 5713 5706 5700 5695 5689 5684 5680 5675 5671 5667 5662 5657 5654 5651
5823 5822 5822 5821 5821 5820 5819 5817 5815 5813 5811 5810 5809 5807 5805 5803 5799 5796 5792 5788 5783 5778 5774 5769 5764 5759 5754 5747 5742 5737 5731 5725 5720 5715 5707 5700 5694 5687 5680 5675 5670 5665 5659 5654 5649 5643 5639 5633 5634
5819 5818 5818 5817 5816 5815 5814 5813 5810 5808 5806 5805 5804 5801 5798 5795 5791 5787 5783 5778 5773 5768 5764 5759 5753 5748 5743 5737 5731 5725 5719 5712 5705 5699 5692 5685 5678 5669 5662 5655 5649 5644 5638 5633 5628 5623 5617 5611 5608
5814 5814 5813 5812 5811 5810 5809 5808 5805 5803 5801 5799 5797 5794 5791 5786 5782 5777 5773 5768 5763 5759 5753 5747 5742 5736 5731 5725 5719 5714 5706 5700 5693 5684 5676 5668 5660 5653 5646 5638 5630 5624 5618 5612 5607 5602 5596 5590 5584
5809 5809 5808 5807 5805 5804 5802 5801 5799 5798 5795 5792 5789 5786 5781 5777 5772 5766 5761 5756 5751 5747 5742 5736 5729 5724 5718 5712 5705 5698 5690 5681 5674 5667 5660 5652 5645 5636 5627 5619 5612 5603 5597 5590 5584 5579 5572 5566 5561
5804 5804 5803 5801 5800 5799 5797 5795 5794 5790 5787 5784 5781 5776 5771 5766 5761 5757 5752 5747 5742 5737 5732 5726 5720 5713 5706 5698 5690 5682 5676 5669 5660 5650 5640 5632 5624 5616 5607 5598 5590 5581 5573 5566 5559 5553 5546 5538 5532
5800 5800 5799 5796 5795 5793 5792 5790 5786 5782 5778 5775 5772 5767 5762 5758 5753 5748 5742 5737 5733 5727 5722 5716 5709 5702 5694 5687 5680 5672 5662 5652 5642 5631 5622 5613 5603 5593 5584 5574 5564 5555 5547 5538 5529 5521 5514 5506 5500
5797 5795 5794 5791 5789 5787 5785 5781 5777 5773 5768 5766 5763 5759 5753 5748 5743 5738 5733 5729 5723 5717 5710 5704 5697 5689 5681 5671 5660 5650 5640 5631 5622 5613 5603 5592 5582 5571 5561 5550 5539 5528 5517 5505 5498 5490 5483 5479 5475
5793 5790 5787 5785 5782 5779 5777 5778 5771 5765 5760 5756 5753 5750 5744 5739 5735 5730 5725 5720 5713 5705 5697 5689 5680 5671 5661 5652 5643 5633 5624 5613 5603 5592 5581 5570 5560 5547 5535 5522 5509 5496 5486 5479 5472 5466 5463 5459 5456
5786 5783 5780 5777 5774 5771 5768 5770 5764 5756 5751 5750 5746 5741 5736 5731 5726 5720 5713 5706 5697 5689 5681 5672 5664 5655 5646 5636 5626 5616 5605 5594 5583 5572 5560 5547 5534 5520 5506 5492 5482 5473 5466 5460 5454 5450 5447 5444 5441